This demonstration page uses our WeatherBlox Daily Observations layout. Learn more.

Left ArrowRight Arrow

Hourly Observations for March 19, 2022

Temp ( °F °C ) Dew Point ( °F °C ) Humidity (%) Winds ( mph kmh ) Pressure ( in mb ) Visibility ( mi km ) Precip ( " mm )
12:59 am 00:59 Mostly Cloudy 65 18.3 56 13.3 73 73 S 8 13 29.95 1014 10 16 0.00 0.00
1:59 am 01:59 Mostly Cloudy 64 17.8 56 13.3 75 75 S 8 13 29.95 1014 10 16 0.00 0.00
2:59 am 02:59 Mostly Cloudy 64 17.8 57 13.9 78 78 S 9 15 29.93 1013 10 16 0.00 0.00
3:59 am 03:59 Mostly Cloudy 63 17.2 57 13.9 81 81 S 9 15 29.91 1013 10 16 0.00 0.00
4:59 am 04:59 Mostly Cloudy 63 17.2 58 14.4 84 84 S 8 13 29.91 1013 10 16 0.00 0.00
5:59 am 05:59 Mostly Cloudy 64 17.8 58 14.4 81 81 SSW 8 13 29.91 1013 10 16 0.00 0.00
6:59 am 06:59 Mostly Cloudy 65 18.3 58 14.4 78 78 SSW 13 20 29.91 1013 10 16 0.00 0.00
7:59 am 07:59 Mostly Sunny 65 18.3 57 13.9 76 76 SSW 13 20 29.93 1014 10 16 0.00 0.00
8:59 am 08:59 Sunny 67 19.4 57 13.9 71 71 SW 13 20 29.94 1014 10 16 0.00 0.00
9:59 am 09:59 Partly Cloudy 69 20.6 56 13.3 63 63 SSW 13 20 29.93 1014 10 16 0.00 0.00
10:59 am 10:59 Mostly Cloudy 73 22.8 57 13.9 57 57 SW 15 24 29.93 1014 10 16 0.00 0.00
11:59 am 11:59 Mostly Cloudy 74 23.3 58 14.4 57 57 SW 16 26 29.91 1013 10 16 0.00 0.00
12:59 pm 12:59 Partly Cloudy 77 25 58 14.4 52 52 SW 17 28 29.88 1012 10 16 0.00 0.00
1:59 pm 13:59 Mostly Cloudy 78 25.6 58 14.4 50 50 SW 24 39 29.86 1011 10 16 0.00 0.00
2:59 pm 14:59 Mostly Cloudy 78 25.6 59 15 52 52 SW 18 30 29.83 1010 10 16 0.00 0.00
3:59 pm 15:59 Mostly Cloudy 78 25.6 60 15.6 54 54 SW 18 30 29.82 1010 10 16 0.00 0.00
4:59 pm 16:59 Partly Cloudy 79 26.1 60 15.6 52 52 SSW 14 22 29.79 1009 10 16 0.00 0.00
5:59 pm 17:59 Mostly Cloudy 79 26.1 60 15.6 52 52 SSW 18 30 29.78 1009 10 16 0.00 0.00
6:59 pm 18:59 Partly Cloudy 77 25 60 15.6 56 56 SSW 14 22 29.78 1009 10 16 0.00 0.00
7:59 pm 19:59 Mostly Clear 76 24.4 60 15.6 58 58 SSW 14 22 29.78 1009 10 16 0.00 0.00
8:59 pm 20:59 Clear 75 23.9 59 15 58 58 SW 14 22 29.79 1009 10 16 0.00 0.00
9:59 pm 21:59 Mostly Clear 74 23.3 57 13.9 56 56 SW 9 15 29.79 1009 10 16 0.00 0.00
10:59 pm 22:59 Partly Cloudy 73 22.8 58 14.4 59 59 SW 9 15 29.79 1009 10 16 0.00 0.00
11:59 pm 23:59 Mostly Cloudy 73 22.8 57 13.9 57 57 SSW 9 15 29.80 1009 10 16 0.00 0.00

Powered by AerisWeather